| time (UTC) | temp F | wind direction | speed MPH | gust MPH | rain 1hr in | rain 24hr in | rain mn in | humidity % | barometer mb |
| 20260508112031 | 61 | 300 | 9.0 | 18.0 | 0.00 | 0.00 | 0.00 | 79 | 1015.1 |
| 20260508111531 | 60 | 286 | 7.0 | 14.0 | 0.00 | 0.00 | 0.00 | 79 | 1015.2 |
| 20260508111031 | 60 | 274 | 7.0 | 18.0 | 0.00 | 0.00 | 0.00 | 78 | 1015.3 |
| 20260508110529 | 61 | 259 | 11.0 | 18.0 | 0.00 | 0.00 | 0.00 | 78 | 1015.3 |
| 20260508110029 | 60 | 264 | 9.0 | 15.0 | 0.00 | 0.00 | 0.00 | 76 | 1015.2 |
| 20260508105528 | 60 | 277 | 7.0 | 18.0 | 0.00 | 0.00 | 0.00 | 76 | 1015.2 |
| 20260508105028 | 60 | 276 | 10.0 | 16.0 | 0.00 | 0.00 | 0.00 | 75 | 1015.1 |
| 20260508104525 | 60 | 271 | 6.0 | 12.0 | 0.00 | 0.00 | 0.00 | 78 | 1015.1 |
| 20260508104024 | 60 | 269 | 6.0 | 13.0 | 0.00 | 0.00 | 0.00 | 77 | 1015.0 |
| 20260508103523 | 60 | 269 | 7.0 | 12.0 | 0.00 | 0.00 | 0.00 | 76 | 1014.9 |
| 20260508103027 | 60 | 282 | 4.0 | 12.0 | 0.00 | 0.00 | 0.00 | 79 | 1015.0 |
| 20260508102521 | 59 | 276 | 6.0 | 13.0 | 0.00 | 0.00 | 0.00 | 80 | 1014.9 |
| 20260508102020 | 59 | 281 | 8.0 | 13.0 | 0.00 | 0.00 | 0.00 | 80 | 1015.0 |
| 20260508101522 | 59 | 250 | 7.0 | 12.0 | 0.00 | 0.00 | 0.00 | 79 | 1015.0 |
| 20260508101020 | 59 | 260 | 7.0 | 12.0 | 0.00 | 0.00 | 0.00 | 79 | 1015.0 |
| 20260508100517 | 59 | 264 | 4.0 | 14.0 | 0.00 | 0.00 | 0.00 | 79 | 1015.1 |
| 20260508100019 | 59 | 282 | 8.0 | 12.0 | 0.00 | 0.00 | 0.00 | 79 | 1015.0 |
| 20260508095516 | 59 | 279 | 6.0 | 12.0 | 0.00 | 0.01 | 0.00 | 79 | 1015.0 |
| 20260508095116 | 59 | 267 | 7.0 | 11.0 | 0.00 | 0.01 | 0.00 | 79 | 1015.0 |
| 20260508094513 | 59 | 263 | 7.0 | 13.0 | 0.00 | 0.01 | 0.00 | 79 | 1015.0 |
| 20260508094014 | 59 | 267 | 7.0 | 11.0 | 0.00 | 0.01 | 0.00 | 79 | 1015.0 |
| 20260508093516 | 59 | 266 | 8.0 | 11.0 | 0.00 | 0.01 | 0.00 | 78 | 1014.9 |
| 20260508093013 | 59 | 251 | 6.0 | 13.0 | 0.00 | 0.01 | 0.00 | 79 | 1015.0 |
| 20260508092512 | 59 | 334 | 6.0 | 13.0 | 0.00 | 0.01 | 0.00 | 78 | 1014.9 |
| 20260508092011 | 59 | 269 | 8.0 | 11.0 | 0.00 | 0.01 | 0.00 | 78 | 1014.9 |
| 20260508091517 | 59 | 252 | 4.0 | 9.0 | 0.00 | 0.01 | 0.00 | 77 | 1014.9 |
| 20260508091009 | 59 | 268 | 1.0 | 4.0 | 0.00 | 0.01 | 0.00 | 78 | 1014.8 |
| 20260508090509 | 59 | 278 | 2.0 | 7.0 | 0.00 | 0.01 | 0.00 | 78 | 1014.9 |
| 20260508090012 | 58 | 302 | 5.0 | 7.0 | 0.00 | 0.01 | 0.00 | 78 | 1014.8 |
| 20260508085505 | 58 | 240 | 3.0 | 7.0 | 0.00 | 0.01 | 0.00 | 78 | 1014.7 |
| 20260508085007 | 58 | 262 | 3.0 | 8.0 | 0.00 | 0.01 | 0.00 | 78 | 1014.5 |
| 20260508084502 | 58 | 267 | 6.0 | 8.0 | 0.00 | 0.01 | 0.00 | 77 | 1014.5 |
| 20260508084104 | 58 | 245 | 3.0 | 6.0 | 0.00 | 0.01 | 0.00 | 78 | 1014.6 |
| 20260508083558 | 58 | 247 | 3.0 | 10.0 | 0.00 | 0.01 | 0.00 | 78 | 1014.6 |
| 20260508083058 | 57 | 274 | 5.0 | 10.0 | 0.00 | 0.01 | 0.00 | 78 | 1014.6 |
| 20260508082556 | 57 | 260 | 4.0 | 9.0 | 0.00 | 0.01 | 0.00 | 78 | 1014.5 |
| 20260508082055 | 57 | 254 | 6.0 | 9.0 | 0.00 | 0.01 | 0.00 | 78 | 1014.5 |
| 20260508081553 | 57 | 275 | 3.0 | 9.0 | 0.00 | 0.01 | 0.00 | 79 | 1014.5 |
| 20260508081052 | 57 | 242 | 5.0 | 8.0 | 0.00 | 0.01 | 0.00 | 81 | 1014.4 |
| 20260508080551 | 56 | 263 | 4.0 | 7.0 | 0.00 | 0.01 | 0.00 | 83 | 1014.4 |
| 20260508080056 | 56 | 153 | 3.0 | 5.0 | 0.00 | 0.01 | 0.00 | 84 | 1014.4 |
| 20260508075549 | 56 | 134 | 3.0 | 6.0 | 0.00 | 0.01 | 0.00 | 85 | 1014.3 |
| 20260508075049 | 55 | 159 | 1.0 | 7.0 | 0.00 | 0.01 | 0.00 | 86 | 1014.2 |
| 20260508074547 | 54 | 126 | 4.0 | 8.0 | 0.00 | 0.01 | 0.00 | 88 | 1014.2 |
| 20260508074046 | 54 | 124 | 5.0 | 10.0 | 0.00 | 0.01 | 0.00 | 88 | 1014.1 |
| 20260508073544 | 54 | 123 | 7.0 | 10.0 | 0.00 | 0.01 | 0.00 | 89 | 1014.2 |
| 20260508073048 | 53 | 106 | 7.0 | 11.0 | 0.00 | 0.01 | 0.00 | 89 | 1014.1 |
| 20260508072542 | 53 | 121 | 7.0 | 10.0 | 0.00 | 0.01 | 0.00 | 89 | 1014.1 |
| 20260508072041 | 53 | 130 | 7.0 | 10.0 | 0.00 | 0.01 | 0.00 | 90 | 1014.1 |
| 20260508071541 | 53 | 123 | 7.0 | 9.0 | 0.00 | 0.01 | 0.00 | 90 | 1014.1 |
| 20260508071039 | 53 | 115 | 7.0 | 9.0 | 0.00 | 0.01 | 0.00 | 90 | 1014.1 |
| 20260508070537 | 53 | 111 | 7.0 | 8.0 | 0.00 | 0.01 | 0.00 | 89 | 1014.0 |
| 20260508070036 | 53 | 111 | 5.0 | 7.0 | 0.00 | 0.01 | 0.00 | 89 | 1013.9 |
| 20260508065537 | 53 | 111 | 4.0 | 7.0 | 0.00 | 0.01 | 0.00 | 89 | 1014.0 |
| 20260508065034 | 54 | 117 | 4.0 | 7.0 | 0.00 | 0.01 | 0.00 | 89 | 1014.0 |
| 20260508064538 | 54 | 89 | 2.0 | 3.0 | 0.00 | 0.01 | 0.00 | 89 | 1013.9 |
| 20260508064034 | 54 | 89 | 1.0 | 3.0 | 0.00 | 0.01 | 0.00 | 89 | 1013.9 |
| 20260508063531 | 54 | 89 | 2.0 | 3.0 | 0.00 | 0.01 | 0.00 | 89 | 1013.8 |
| 20260508063057 | 54 | 89 | 1.0 | 3.0 | 0.00 | 0.01 | 0.00 | 89 | 1013.7 |
| 20260508062531 | 54 | 89 | 1.0 | 2.0 | 0.00 | 0.01 | 0.00 | 89 | 1013.7 |
| 20260508062030 | 54 | 89 | 0.0 | 2.0 | 0.00 | 0.01 | 0.00 | 89 | 1013.7 |
| 20260508061530 | 54 | 89 | 0.0 | 2.0 | 0.00 | 0.01 | 0.00 | 89 | 1013.7 |
| 20260508061029 | 54 | 89 | 0.0 | 3.0 | 0.00 | 0.01 | 0.00 | 89 | 1013.7 |
| 20260508060533 | 54 | 89 | 1.0 | 3.0 | 0.00 | 0.01 | 0.00 | 89 | 1013.8 |
| 20260508060029 | 54 | 89 | 0.0 | 2.0 | 0.00 | 0.01 | 0.00 | 89 | 1013.8 |
| 20260508055528 | 54 | 89 | 1.0 | 2.0 | 0.00 | 0.02 | 0.00 | 90 | 1013.7 |
| 20260508055028 | 54 | 89 | 0.0 | 2.0 | 0.00 | 0.02 | 0.00 | 90 | 1013.7 |
| 20260508054529 | 54 | 89 | 0.0 | 1.0 | 0.00 | 0.02 | 0.00 | 90 | 1013.7 |
| 20260508054028 | 54 | 89 | 0.0 | 2.0 | 0.00 | 0.02 | 0.00 | 90 | 1013.6 |
| 20260508053527 | 54 | 89 | 0.0 | 2.0 | 0.00 | 0.02 | 0.00 | 90 | 1013.7 |
| 20260508053042 | 54 | 89 | 0.0 | 2.0 | 0.00 | 0.02 | 0.00 | 90 | 1013.6 |
| 20260508052528 | 54 | 89 | 0.0 | 2.0 | 0.00 | 0.02 | 0.00 | 90 | 1013.6 |
| 20260508052031 | 54 | 89 | 1.0 | 3.0 | 0.00 | 0.02 | 0.00 | 90 | 1013.5 |
| 20260508051532 | 54 | 89 | 0.0 | 4.0 | 0.00 | 0.02 | 0.00 | 90 | 1013.5 |
| 20260508051027 | 54 | 89 | 2.0 | 4.0 | 0.00 | 0.02 | 0.00 | 90 | 1013.5 |
| 20260508050526 | 54 | 89 | 2.0 | 4.0 | 0.00 | 0.02 | 0.00 | 90 | 1013.4 |
| 20260508050030 | 54 | 89 | 2.0 | 4.0 | 0.00 | 0.02 | 0.00 | 90 | 1013.3 |
| 20260508045526 | 54 | 89 | 2.0 | 3.0 | 0.00 | 0.02 | 0.00 | 90 | 1013.4 |
| 20260508045026 | 54 | 89 | 1.0 | 3.0 | 0.00 | 0.02 | 0.00 | 90 | 1013.4 |
| 20260508044526 | 54 | 89 | 0.0 | 3.0 | 0.00 | 0.02 | 0.00 | 90 | 1013.3 |
| 20260508044024 | 55 | 89 | 2.0 | 4.0 | 0.00 | 0.02 | 0.00 | 90 | 1013.3 |
| 20260508043523 | 55 | 89 | 2.0 | 4.0 | 0.00 | 0.02 | 0.00 | 90 | 1013.3 |
| 20260508043026 | 55 | 89 | 2.0 | 3.0 | 0.00 | 0.02 | 0.00 | 89 | 1013.3 |
| 20260508042522 | 55 | 89 | 2.0 | 3.0 | 0.00 | 0.02 | 0.00 | 89 | 1013.4 |
| 20260508042026 | 55 | 211 | 1.0 | 2.0 | 0.00 | 0.02 | 0.00 | 89 | 1013.3 |
| 20260508041522 | 55 | 211 | 1.0 | 3.0 | 0.00 | 0.02 | 0.00 | 92 | 1013.3 |
| 20260508041021 | 55 | 211 | 1.0 | 3.0 | 0.00 | 0.02 | 0.00 | 89 | 1013.3 |
| 20260508040521 | 55 | 211 | 2.0 | 3.0 | 0.00 | 0.02 | 0.00 | 90 | 1013.3 |
| 20260508040020 | 55 | 211 | 2.0 | 3.0 | 0.00 | 0.02 | 0.00 | 90 | 1013.3 |
| 20260508035520 | 55 | 211 | 2.0 | 3.0 | 0.00 | 0.02 | 0.00 | 90 | 1013.4 |
| 20260508035021 | 55 | 211 | 2.0 | 3.0 | 0.00 | 0.02 | 0.00 | 90 | 1013.4 |
| 20260508034525 | 55 | 211 | 1.0 | 2.0 | 0.00 | 0.02 | 0.00 | 90 | 1013.5 |
| 20260508034017 | 55 | 210 | 1.0 | 3.0 | 0.00 | 0.02 | 0.00 | 90 | 1013.5 |
| 20260508033519 | 55 | 210 | 1.0 | 3.0 | 0.00 | 0.02 | 0.00 | 91 | 1013.5 |
| 20260508033024 | 55 | 244 | 0.0 | 2.0 | 0.00 | 0.02 | 0.00 | 91 | 1013.4 |
| 20260508032517 | 55 | 244 | 1.0 | 2.0 | 0.00 | 0.02 | 0.00 | 91 | 1013.5 |
| 20260508032017 | 55 | 244 | 0.0 | 3.0 | 0.00 | 0.02 | 0.00 | 91 | 1013.5 |
| 20260508031518 | 55 | 244 | 1.0 | 3.0 | 0.00 | 0.02 | 0.00 | 92 | 1013.6 |
| 20260508031015 | 55 | 244 | 0.0 | 4.0 | 0.00 | 0.02 | 0.00 | 92 | 1013.6 |
| 20260508030515 | 55 | 229 | 2.0 | 4.0 | 0.00 | 0.02 | 0.00 | 92 | 1013.6 |
| 20260508030122 | 55 | 217 | 2.0 | 4.0 | 0.00 | 0.02 | 0.00 | 92 | 1013.6 |
| 20260508025515 | 55 | 198 | 2.0 | 3.0 | 0.00 | 0.02 | 0.00 | 92 | 1013.6 |
| 20260508025015 | 56 | 198 | 1.0 | 3.0 | 0.00 | 0.02 | 0.00 | 92 | 1013.6 |
| 20260508024521 | 56 | 198 | 1.0 | 3.0 | 0.00 | 0.02 | 0.00 | 92 | 1013.7 |
| 20260508024013 | 56 | 198 | 1.0 | 3.0 | 0.00 | 0.02 | 0.00 | 92 | 1013.7 |
| 20260508023513 | 56 | 224 | 0.0 | 5.0 | 0.00 | 0.02 | 0.00 | 93 | 1013.7 |
| 20260508023014 | 56 | 189 | 2.0 | 5.0 | 0.00 | 0.02 | 0.00 | 93 | 1013.8 |
| 20260508022513 | 56 | 211 | 1.0 | 4.0 | 0.00 | 0.02 | 0.00 | 93 | 1013.7 |
| 20260508022012 | 56 | 182 | 2.0 | 4.0 | 0.00 | 0.02 | 0.00 | 92 | 1013.7 |
| 20260508021511 | 56 | 273 | 2.0 | 4.0 | 0.00 | 0.02 | 0.00 | 92 | 1013.8 |
| 20260508021013 | 56 | 273 | 2.0 | 3.0 | 0.00 | 0.02 | 0.00 | 92 | 1013.9 |
| 20260508020508 | 56 | 273 | 0.0 | 2.0 | 0.00 | 0.02 | 0.00 | 92 | 1014.0 |
| 20260508020008 | 56 | 273 | 0.0 | 2.0 | 0.00 | 0.02 | 0.00 | 93 | 1014.0 |
| 20260508015507 | 57 | 273 | 1.0 | 3.0 | 0.00 | 0.02 | 0.00 | 93 | 1014.1 |
| 20260508015007 | 56 | 273 | 1.0 | 3.0 | 0.00 | 0.02 | 0.00 | 93 | 1014.2 |
| 20260508014509 | 56 | 273 | 2.0 | 3.0 | 0.00 | 0.02 | 0.00 | 93 | 1014.3 |
| 20260508014006 | 56 | 273 | 0.0 | 3.0 | 0.00 | 0.02 | 0.00 | 93 | 1014.3 |
| 20260508013505 | 56 | 273 | 2.0 | 3.0 | 0.00 | 0.02 | 0.00 | 93 | 1014.3 |
| 20260508013005 | 56 | 273 | 1.0 | 2.0 | 0.00 | 0.02 | 0.00 | 93 | 1014.3 |
| 20260508012503 | 57 | 273 | 0.0 | 2.0 | 0.00 | 0.02 | 0.00 | 93 | 1014.4 |
| 20260508012005 | 57 | 273 | 0.0 | 3.0 | 0.00 | 0.02 | 0.00 | 93 | 1014.4 |
| 20260508011502 | 57 | 273 | 1.0 | 3.0 | 0.00 | 0.02 | 0.00 | 93 | 1014.5 |
| 20260508011053 | 57 | 273 | 0.0 | 2.0 | 0.00 | 0.02 | 0.00 | 93 | 1014.5 |
| 20260508010553 | 57 | 273 | 0.0 | 2.0 | 0.00 | 0.02 | 0.00 | 93 | 1014.5 |
| 20260508010101 | 57 | 273 | 1.0 | 2.0 | 0.00 | 0.02 | 0.00 | 93 | 1014.6 |
| 20260508005555 | 57 | 273 | 0.0 | 0.0 | 0.00 | 0.02 | 0.00 | 93 | 1014.6 |
| 20260508005052 | 57 | 273 | 0.0 | 0.0 | 0.00 | 0.02 | 0.00 | 93 | 1014.6 |
| 20260508004551 | 58 | 273 | 0.0 | 0.0 | 0.00 | 0.02 | 0.00 | 93 | 1014.7 |
| 20260508004050 | 57 | 273 | 0.0 | 0.0 | 0.00 | 0.02 | 0.00 | 93 | 1014.7 |
| 20260508003549 | 58 | 273 | 0.0 | 0.0 | 0.00 | 0.02 | 0.00 | 93 | 1014.7 |
| 20260508003100 | 58 | 273 | 0.0 | 0.0 | 0.00 | 0.02 | 0.00 | 93 | 1014.8 |
| 20260508002549 | 58 | 273 | 0.0 | 3.0 | 0.00 | 0.02 | 0.00 | 93 | 1014.8 |
| 20260508002049 | 58 | 273 | 0.0 | 6.0 | 0.00 | 0.02 | 0.00 | 93 | 1014.8 |
| 20260508001553 | 58 | 273 | 3.0 | 6.0 | 0.00 | 0.02 | 0.00 | 93 | 1014.9 |
| 20260508001148 | 58 | 273 | 2.0 | 3.0 | 0.00 | 0.02 | 0.00 | 93 | 1014.8 |
| 20260508000548 | 58 | 273 | 0.0 | 3.0 | 0.00 | 0.02 | 0.00 | 92 | 1014.9 |
| 20260508000048 | 58 | 273 | 0.0 | 1.0 | 0.00 | 0.02 | 0.00 | 92 | 1015.0 |
| 20260507235548 | 58 | 273 | 0.0 | 0.0 | 0.00 | 0.02 | 0.00 | 92 | 1014.9 |
| 20260507235046 | 58 | 273 | 0.0 | 0.0 | 0.00 | 0.02 | 0.00 | 92 | 1014.9 |
| 20260507234547 | 58 | 273 | 0.0 | 0.0 | 0.00 | 0.02 | 0.00 | 92 | 1014.9 |
| 20260507234051 | 58 | 273 | 0.0 | 0.0 | 0.00 | 0.02 | 0.00 | 92 | 1014.9 |
| 20260507233546 | 58 | 273 | 0.0 | 0.0 | 0.00 | 0.02 | 0.00 | 92 | 1015.0 |
| 20260507233046 | 58 | 273 | 0.0 | 0.0 | 0.00 | 0.02 | 0.00 | 92 | 1014.9 |
| 20260507232545 | 58 | 273 | 0.0 | 0.0 | 0.00 | 0.02 | 0.00 | 92 | 1014.9 |
| 20260507232046 | 58 | 273 | 0.0 | 0.0 | 0.00 | 0.02 | 0.00 | 92 | 1014.8 |
| 20260507231545 | 58 | 273 | 0.0 | 0.0 | 0.00 | 0.02 | 0.00 | 92 | 1014.9 |
| 20260507231043 | 58 | 273 | 0.0 | 0.0 | 0.00 | 0.02 | 0.00 | 92 | 1014.9 |
| 20260507230544 | 58 | 273 | 0.0 | 2.0 | 0.00 | 0.02 | 0.00 | 92 | 1015.0 |
| 20260507230058 | 58 | 273 | 0.0 | 3.0 | 0.00 | 0.02 | 0.00 | 92 | 1014.9 |
| 20260507225543 | 58 | 273 | 2.0 | 3.0 | 0.00 | 0.03 | 0.02 | 92 | 1015.0 |
| 20260507225043 | 58 | 273 | 1.0 | 3.0 | 0.00 | 0.03 | 0.02 | 92 | 1015.0 |
| 20260507224543 | 58 | 273 | 0.0 | 2.0 | 0.00 | 0.03 | 0.02 | 92 | 1014.9 |
| 20260507224042 | 58 | 273 | 1.0 | 3.0 | 0.00 | 0.03 | 0.02 | 92 | 1015.0 |
| 20260507223542 | 58 | 273 | 2.0 | 3.0 | 0.00 | 0.03 | 0.02 | 92 | 1015.0 |
| 20260507223130 | 58 | 273 | 0.0 | 2.0 | 0.00 | 0.03 | 0.02 | 92 | 1014.9 |
| 20260507222542 | 58 | 273 | 1.0 | 3.0 | 0.00 | 0.03 | 0.02 | 92 | 1014.9 |
| 20260507222042 | 58 | 273 | 0.0 | 2.0 | 0.00 | 0.03 | 0.02 | 92 | 1014.9 |
| 20260507221542 | 58 | 273 | 1.0 | 3.0 | 0.00 | 0.03 | 0.02 | 92 | 1014.8 |
| 20260507221041 | 58 | 273 | 1.0 | 3.0 | 0.00 | 0.03 | 0.02 | 92 | 1014.8 |
| 20260507220541 | 58 | 273 | 1.0 | 3.0 | 0.00 | 0.03 | 0.02 | 92 | 1014.8 |
| 20260507220040 | 58 | 273 | 1.0 | 4.0 | 0.00 | 0.03 | 0.02 | 92 | 1014.8 |
| 20260507215541 | 58 | 273 | 2.0 | 4.0 | 0.00 | 0.03 | 0.02 | 91 | 1014.8 |
| 20260507215041 | 58 | 273 | 1.0 | 4.0 | 0.00 | 0.03 | 0.02 | 91 | 1014.8 |
| 20260507214551 | 58 | 273 | 2.0 | 6.0 | 0.00 | 0.03 | 0.02 | 91 | 1014.8 |
| 20260507214040 | 58 | 273 | 2.0 | 4.0 | 0.00 | 0.03 | 0.02 | 91 | 1014.8 |
| 20260507213541 | 58 | 273 | 0.0 | 0.0 | 0.00 | 0.03 | 0.02 | 91 | 1014.8 |
| 20260507213041 | 58 | 273 | 0.0 | 0.0 | 0.00 | 0.03 | 0.02 | 90 | 1014.7 |
| 20260507212539 | 58 | 273 | 0.0 | 0.0 | 0.00 | 0.03 | 0.02 | 90 | 1014.7 |
| 20260507212040 | 58 | 273 | 0.0 | 0.0 | 0.00 | 0.03 | 0.02 | 90 | 1014.6 |
| 20260507211540 | 58 | 273 | 0.0 | 0.0 | 0.00 | 0.03 | 0.02 | 90 | 1014.6 |
| 20260507211039 | 58 | 273 | 0.0 | 0.0 | 0.00 | 0.03 | 0.02 | 90 | 1014.5 |
| 20260507210539 | 58 | 273 | 0.0 | 0.0 | 0.00 | 0.03 | 0.02 | 90 | 1014.5 |
| 20260507210042 | 58 | 273 | 0.0 | 0.0 | 0.00 | 0.03 | 0.02 | 90 | 1014.4 |
| 20260507205539 | 58 | 273 | 0.0 | 0.0 | 0.00 | 0.03 | 0.02 | 89 | 1014.4 |
| 20260507205040 | 58 | 273 | 0.0 | 0.0 | 0.00 | 0.03 | 0.02 | 89 | 1014.4 |
| 20260507204542 | 58 | 273 | 0.0 | 0.0 | 0.00 | 0.03 | 0.02 | 89 | 1014.4 |
| 20260507204038 | 59 | 273 | 0.0 | 0.0 | 0.00 | 0.03 | 0.02 | 89 | 1014.4 |
| 20260507203538 | 59 | 273 | 0.0 | 0.0 | 0.00 | 0.03 | 0.02 | 89 | 1014.4 |
| 20260507203041 | 59 | 273 | 0.0 | 0.0 | 0.00 | 0.03 | 0.02 | 89 | 1014.3 |
| 20260507202537 | 59 | 273 | 0.0 | 0.0 | 0.00 | 0.03 | 0.02 | 89 | 1014.2 |
| 20260507202040 | 59 | 273 | 0.0 | 0.0 | 0.00 | 0.03 | 0.02 | 89 | 1014.2 |
| 20260507201541 | 59 | 273 | 0.0 | 0.0 | 0.00 | 0.03 | 0.02 | 89 | 1014.1 |
| 20260507201037 | 59 | 273 | 0.0 | 0.0 | 0.00 | 0.03 | 0.02 | 89 | 1014.1 |
| 20260507200537 | 59 | 273 | 0.0 | 0.0 | 0.00 | 0.03 | 0.02 | 89 | 1014.0 |
| 20260507200051 | 59 | 273 | 0.0 | 0.0 | 0.00 | 0.03 | 0.02 | 89 | 1014.0 |
| 20260507195536 | 59 | 273 | 0.0 | 1.0 | 0.00 | 0.03 | 0.02 | 89 | 1013.9 |
| 20260507195039 | 59 | 273 | 0.0 | 2.0 | 0.00 | 0.03 | 0.02 | 89 | 1013.9 |
| 20260507194537 | 59 | 273 | 0.0 | 4.0 | 0.00 | 0.03 | 0.02 | 89 | 1013.9 |
| 20260507194036 | 59 | 273 | 2.0 | 6.0 | 0.00 | 0.03 | 0.02 | 88 | 1013.8 |
| 20260507193536 | 59 | 275 | 3.0 | 8.0 | 0.00 | 0.03 | 0.02 | 88 | 1013.8 |
| 20260507193044 | 59 | 331 | 4.0 | 8.0 | 0.00 | 0.03 | 0.02 | 88 | 1013.7 |
| 20260507192537 | 60 | 294 | 3.0 | 5.0 | 0.00 | 0.03 | 0.02 | 88 | 1013.6 |
| 20260507192037 | 60 | 271 | 3.0 | 8.0 | 0.00 | 0.03 | 0.02 | 87 | 1013.6 |
| 20260507191536 | 60 | 244 | 4.0 | 8.0 | 0.00 | 0.03 | 0.02 | 88 | 1013.6 |
| 20260507191037 | 60 | 254 | 4.0 | 8.0 | 0.00 | 0.03 | 0.02 | 88 | 1013.6 |
| 20260507190534 | 60 | 265 | 4.0 | 8.0 | 0.00 | 0.03 | 0.02 | 87 | 1013.6 |
| 20260507190038 | 60 | 255 | 5.0 | 8.0 | 0.00 | 0.03 | 0.02 | 88 | 1013.6 |
| 20260507185534 | 60 | 252 | 5.0 | 10.0 | 0.00 | 0.03 | 0.02 | 88 | 1013.6 |
| 20260507185036 | 60 | 237 | 7.0 | 10.0 | 0.00 | 0.03 | 0.02 | 87 | 1013.6 |
| 20260507184534 | 60 | 225 | 5.0 | 11.0 | 0.00 | 0.03 | 0.02 | 87 | 1013.5 |
| 20260507184033 | 60 | 262 | 5.0 | 10.0 | 0.00 | 0.03 | 0.02 | 87 | 1013.5 |
| 20260507183537 | 60 | 238 | 7.0 | 10.0 | 0.00 | 0.03 | 0.02 | 87 | 1013.4 |
| 20260507183038 | 60 | 237 | 5.0 | 9.0 | 0.00 | 0.03 | 0.02 | 87 | 1013.4 |
| 20260507182534 | 60 | 255 | 5.0 | 9.0 | 0.00 | 0.03 | 0.02 | 87 | 1013.3 |
| 20260507182034 | 60 | 242 | 6.0 | 9.0 | 0.00 | 0.03 | 0.02 | 87 | 1013.3 |
| 20260507181535 | 60 | 225 | 6.0 | 9.0 | 0.00 | 0.03 | 0.02 | 87 | 1013.3 |
| 20260507181033 | 60 | 247 | 7.0 | 9.0 | 0.00 | 0.03 | 0.02 | 87 | 1013.4 |
| 20260507180535 | 60 | 269 | 5.0 | 10.0 | 0.00 | 0.03 | 0.02 | 87 | 1013.3 |
| 20260507180131 | 60 | 257 | 6.0 | 11.0 | 0.00 | 0.03 | 0.02 | 87 | 1013.2 |
| 20260507175533 | 60 | 236 | 7.0 | 11.0 | 0.00 | 0.03 | 0.02 | 87 | 1013.2 |
| 20260507175031 | 60 | 269 | 6.0 | 13.0 | 0.00 | 0.03 | 0.02 | 86 | 1013.2 |
| 20260507174530 | 61 | 279 | 7.0 | 15.0 | 0.00 | 0.03 | 0.02 | 86 | 1013.2 |
| 20260507174031 | 61 | 272 | 9.0 | 13.0 | 0.00 | 0.03 | 0.02 | 86 | 1013.1 |
| 20260507173529 | 61 | 284 | 7.0 | 14.0 | 0.00 | 0.03 | 0.02 | 85 | 1013.1 |
| 20260507173029 | 62 | 266 | 8.0 | 16.0 | 0.00 | 0.03 | 0.02 | 85 | 1012.9 |
| 20260507172530 | 62 | 262 | 7.0 | 16.0 | 0.00 | 0.03 | 0.02 | 85 | 1013.1 |
| 20260507172031 | 62 | 261 | 9.0 | 15.0 | 0.00 | 0.03 | 0.02 | 84 | 1013.1 |
| 20260507171529 | 62 | 254 | 7.0 | 14.0 | 0.00 | 0.03 | 0.02 | 83 | 1013.1 |
| 20260507171029 | 63 | 266 | 10.0 | 15.0 | 0.00 | 0.03 | 0.02 | 82 | 1013.0 |
| 20260507170531 | 63 | 238 | 9.0 | 15.0 | 0.00 | 0.03 | 0.02 | 84 | 1012.9 |
| 20260507170029 | 62 | 202 | 10.0 | 18.0 | 0.00 | 0.03 | 0.02 | 84 | 1013.0 |
| 20260507165528 | 63 | 267 | 11.0 | 18.0 | 0.00 | 0.03 | 0.02 | 83 | 1013.0 |
| 20260507165028 | 63 | 263 | 11.0 | 15.0 | 0.00 | 0.03 | 0.02 | 82 | 1012.8 |
| 20260507164528 | 63 | 253 | 7.0 | 16.0 | 0.00 | 0.03 | 0.02 | 82 | 1012.9 |
| 20260507164028 | 63 | 246 | 10.0 | 16.0 | 0.00 | 0.03 | 0.02 | 82 | 1012.9 |
| 20260507163531 | 63 | 270 | 8.0 | 12.0 | 0.00 | 0.03 | 0.02 | 83 | 1012.9 |
| 20260507163029 | 63 | 266 | 7.0 | 15.0 | 0.00 | 0.03 | 0.02 | 83 | 1013.0 |
| 20260507162526 | 63 | 279 | 8.0 | 16.0 | 0.00 | 0.03 | 0.02 | 83 | 1013.1 |
| 20260507162030 | 63 | 263 | 8.0 | 16.0 | 0.00 | 0.03 | 0.02 | 83 | 1013.3 |
| 20260507161530 | 63 | 279 | 6.0 | 15.0 | 0.00 | 0.03 | 0.02 | 84 | 1013.2 |
| 20260507161025 | 63 | 276 | 7.0 | 15.0 | 0.00 | 0.03 | 0.02 | 84 | 1013.2 |
| 20260507160525 | 63 | 263 | 9.0 | 15.0 | 0.00 | 0.03 | 0.02 | 85 | 1013.3 |
| 20260507160024 | 62 | 269 | 9.0 | 15.0 | 0.00 | 0.03 | 0.02 | 85 | 1013.4 |
| 20260507155524 | 62 | 230 | 8.0 | 13.0 | 0.00 | 0.05 | 0.02 | 85 | 1013.5 |
| 20260507155026 | 63 | 271 | 8.0 | 13.0 | 0.00 | 0.05 | 0.02 | 86 | 1013.5 |
| 20260507154528 | 62 | 265 | 6.0 | 13.0 | 0.00 | 0.05 | 0.02 | 86 | 1013.7 |
| 20260507154024 | 62 | 263 | 10.0 | 15.0 | 0.00 | 0.05 | 0.02 | 86 | 1013.7 |
| 20260507153523 | 62 | 232 | 8.0 | 15.0 | 0.00 | 0.05 | 0.02 | 86 | 1013.8 |
| 20260507153024 | 62 | 267 | 9.0 | 13.0 | 0.00 | 0.05 | 0.02 | 85 | 1013.9 |
| 20260507152526 | 62 | 265 | 7.0 | 11.0 | 0.00 | 0.05 | 0.02 | 86 | 1013.9 |
| 20260507152023 | 62 | 248 | 5.0 | 11.0 | 0.00 | 0.05 | 0.02 | 85 | 1014.0 |
| 20260507151525 | 62 | 242 | 6.0 | 11.0 | 0.00 | 0.05 | 0.02 | 86 | 1014.1 |
| 20260507151022 | 62 | 323 | 4.0 | 10.0 | 0.00 | 0.05 | 0.02 | 87 | 1014.1 |
| 20260507150521 | 62 | 270 | 6.0 | 14.0 | 0.00 | 0.05 | 0.02 | 87 | 1014.2 |
| 20260507150021 | 61 | 243 | 8.0 | 14.0 | 0.00 | 0.05 | 0.02 | 87 | 1014.2 |
| 20260507145520 | 61 | 246 | 7.0 | 10.0 | 0.00 | 0.09 | 0.02 | 87 | 1014.2 |
| 20260507145021 | 61 | 239 | 4.0 | 9.0 | 0.00 | 0.09 | 0.02 | 87 | 1014.3 |
| 20260507144527 | 61 | 261 | 4.0 | 11.0 | 0.00 | 0.09 | 0.02 | 87 | 1014.4 |
| 20260507144020 | 61 | 264 | 6.0 | 12.0 | 0.00 | 0.09 | 0.02 | 87 | 1014.5 |
| 20260507143520 | 61 | 279 | 6.0 | 12.0 | 0.00 | 0.09 | 0.02 | 87 | 1014.6 |
| 20260507143021 | 61 | 274 | 5.0 | 10.0 | 0.00 | 0.09 | 0.02 | 87 | 1014.5 |
| 20260507142521 | 61 | 290 | 6.0 | 10.0 | 0.00 | 0.09 | 0.02 | 88 | 1014.6 |
| 20260507142021 | 61 | 286 | 6.0 | 10.0 | 0.00 | 0.09 | 0.02 | 88 | 1014.6 |
| 20260507141521 | 61 | 303 | 3.0 | 11.0 | 0.00 | 0.09 | 0.02 | 89 | 1014.6 |
| 20260507141019 | 61 | 260 | 6.0 | 12.0 | 0.00 | 0.09 | 0.02 | 89 | 1014.6 |
| 20260507140523 | 60 | 264 | 6.0 | 13.0 | 0.00 | 0.09 | 0.02 | 89 | 1014.5 |
| 20260507140019 | 60 | 250 | 7.0 | 13.0 | 0.00 | 0.09 | 0.02 | 89 | 1014.6 |
| 20260507135524 | 60 | 279 | 7.0 | 13.0 | 0.00 | 0.09 | 0.02 | 89 | 1014.6 |
| 20260507135021 | 60 | 271 | 9.0 | 13.0 | 0.00 | 0.09 | 0.02 | 89 | 1014.8 |
| 20260507134518 | 60 | 272 | 9.0 | 13.0 | 0.00 | 0.09 | 0.02 | 89 | 1014.8 |
| 20260507134017 | 60 | 263 | 6.0 | 13.0 | 0.00 | 0.09 | 0.02 | 89 | 1014.8 |
| 20260507133521 | 61 | 254 | 9.0 | 16.0 | 0.00 | 0.09 | 0.02 | 89 | 1014.9 |
| 20260507133018 | 61 | 240 | 9.0 | 16.0 | 0.00 | 0.09 | 0.02 | 89 | 1014.9 |
| 20260507132522 | 61 | 266 | 11.0 | 17.0 | 0.00 | 0.09 | 0.02 | 89 | 1014.9 |
| 20260507132017 | 61 | 270 | 12.0 | 17.0 | 0.00 | 0.09 | 0.02 | 89 | 1014.8 |
| 20260507131524 | 61 | 260 | 10.0 | 16.0 | 0.00 | 0.09 | 0.02 | 89 | 1015.0 |
| 20260507131019 | 62 | 282 | 9.0 | 18.0 | 0.00 | 0.09 | 0.02 | 88 | 1015.0 |
| 20260507130516 | 62 | 265 | 12.0 | 18.0 | 0.00 | 0.09 | 0.02 | 87 | 1015.0 |
| 20260507130016 | 63 | 271 | 6.0 | 14.0 | 0.00 | 0.09 | 0.02 | 87 | 1015.0 |
| 20260507125519 | 63 | 294 | 9.0 | 15.0 | 0.00 | 0.09 | 0.02 | 86 | 1015.0 |
| 20260507125013 | 63 | 254 | 7.0 | 16.0 | 0.00 | 0.09 | 0.02 | 87 | 1014.9 |
| 20260507124514 | 63 | 255 | 6.0 | 16.0 | 0.00 | 0.09 | 0.02 | 86 | 1014.9 |
| 20260507124013 | 63 | 266 | 6.0 | 14.0 | 0.00 | 0.09 | 0.02 | 87 | 1014.9 |
| 20260507123513 | 63 | 255 | 10.0 | 14.0 | 0.00 | 0.09 | 0.02 | 88 | 1014.9 |
| 20260507123013 | 62 | 264 | 9.0 | 13.0 | 0.00 | 0.09 | 0.02 | 87 | 1015.0 |
| 20260507122511 | 62 | 268 | 7.0 | 12.0 | 0.00 | 0.09 | 0.02 | 89 | 1014.9 |
| 20260507122011 | 62 | 228 | 6.0 | 14.0 | 0.00 | 0.09 | 0.02 | 90 | 1014.8 |
| 20260507121511 | 62 | 278 | 5.0 | 11.0 | 0.00 | 0.09 | 0.02 | 91 | 1014.9 |
| 20260507121010 | 62 | 192 | 5.0 | 11.0 | 0.00 | 0.09 | 0.02 | 92 | 1014.9 |
| 20260507120508 | 61 | 256 | 8.0 | 11.0 | 0.00 | 0.09 | 0.02 | 93 | 1015.1 |
| 20260507120007 | 61 | 235 | 6.0 | 14.0 | 0.00 | 0.09 | 0.02 | 92 | 1015.0 |
| 20260507115508 | 61 | 198 | 5.0 | 11.0 | 0.00 | 0.09 | 0.02 | 93 | 1015.1 |
| 20260507115007 | 60 | 188 | 7.0 | 13.0 | 0.00 | 0.09 | 0.02 | 92 | 1015.3 |
| 20260507114506 | 61 | 177 | 8.0 | 12.0 | 0.00 | 0.09 | 0.02 | 94 | 1015.4 |
| 20260507114005 | 60 | 191 | 7.0 | 10.0 | 0.00 | 0.09 | 0.02 | 94 | 1015.3 |
| 20260507113504 | 60 | 211 | 7.0 | 12.0 | 0.00 | 0.09 | 0.02 | 95 | 1015.4 |
| 20260507113004 | 60 | 234 | 6.0 | 12.0 | 0.00 | 0.09 | 0.02 | 95 | 1015.5 |
| 20260507112503 | 60 | 199 | 9.0 | 14.0 | 0.00 | 0.09 | 0.02 | 95 | 1015.5 |